Waarnemingen

Advertentie
Mijn weer
Cagliari/Elmas, Italië (16560): temperatuur & dauwpunt: 17.10.2018 23:00:00 - 23.10.2018 23:00:00 (CEST)Cagliari/Elmas, Italië (16560): windsnelheid: 17.10.2018 23:00:00 - 23.10.2018 23:00:00 (CEST)Cagliari/Elmas, Italië (16560): windrichting: 17.10.2018 23:00:00 - 23.10.2018 23:00:00 (CEST)Cagliari/Elmas, Italië (16560): luchtdruk: 17.10.2018 23:00:00 - 23.10.2018 23:00:00 (CEST)Cagliari/Elmas, Italië (16560): zicht: 17.10.2018 23:00:00 - 23.10.2018 23:00:00 (CEST)Cagliari/Elmas, Italië (16560): neerslag: 17.10.2018 23:00:00 - 23.10.2018 23:00:00 (CEST)
Datum & Tijd tt [°C] td [°C] ff [km/u] ff [kn] dd ppp [hPa] vv [km] rr [mm]
23.10.2018 23:00:00 14,8 12,0 9 5 NNO 1019,9 10 0,0
23.10.2018 22:00:00 16,0 12,0 8 4 N - 10 -
23.10.2018 21:00:00 18,0 13,0 9 5 WNW - 10 -
23.10.2018 20:00:00 18,3 12,6 13 7 WNW 1019,6 10 -
23.10.2018 19:00:00 19,0 12,0 11 6 NNW - 10 -
23.10.2018 18:00:00 21,0 11,0 15 8 NNW - 10 -
23.10.2018 17:00:00 21,8 11,6 15 8 NW 1018,6 10 0,0
23.10.2018 16:00:00 22,0 11,0 9 5 WNW - 10 -
23.10.2018 15:00:00 22,0 10,0 11 6 NW - 10 -
23.10.2018 14:00:00 20,9 11,1 13 7 WNW 1019,4 10 -
23.10.2018 13:00:00 20,0 10,0 15 8 NW - 10 -
23.10.2018 12:00:00 19,0 11,0 18 10 NW - 10 -
23.10.2018 11:00:00 18,2 10,5 15 8 NW 1020,4 10 0,0
23.10.2018 10:00:00 15,0 10,0 9 5 NW - 10 -
23.10.2018 09:00:00 13,0 9,0 13 7 NNW - 10 -
23.10.2018 08:00:00 11,6 8,8 9 5 NNW 1018,6 10 -
23.10.2018 07:00:00 13,0 9,0 11 6 NW - 10 -
23.10.2018 06:00:00 13,0 8,0 11 6 N - 10 -
23.10.2018 05:00:00 12,1 8,4 4 2 - 1017,6 10 0,0
23.10.2018 04:00:00 13,0 8,0 4 2 - - 10 -
23.10.2018 03:00:00 14,0 9,0 13 7 NW - 10 -
23.10.2018 02:00:00 14,4 9,0 13 7 WNW 1017,5 10 -
23.10.2018 01:00:00 15,0 9,0 16 9 NW - 10 -
23.10.2018 00:00:00 15,0 9,0 15 8 NW - 10 -
22.10.2018 23:00:00 14,2 8,4 5 3 NW 1017,9 10 0,0
22.10.2018 22:00:00 15,0 8,0 9 5 NW - 10 -
22.10.2018 21:00:00 15,0 8,0 11 6 NNW - 10 -
22.10.2018 20:00:00 16,1 7,6 16 9 N 1016,2 10 -
22.10.2018 19:00:00 - - - - - - - -
22.10.2018 18:00:00 20,0 6,0 22 12 NNW - 10 -
22.10.2018 17:00:00 20,6 5,2 26 14 N 1013,6 10 0,0
22.10.2018 16:00:00 21,0 7,0 18 10 NW - 10 -
22.10.2018 15:00:00 21,0 8,0 22 12 NW - 10 -
22.10.2018 14:00:00 20,2 8,6 21 11 NNW 1014,5 10 -
22.10.2018 13:00:00 19,0 11,0 16 9 NW - 10 -
22.10.2018 12:00:00 18,0 12,0 11 6 NNW - 10 -
22.10.2018 11:00:00 17,6 13,2 13 7 NNW 1015,4 10 0,0
22.10.2018 10:00:00 17,0 15,0 9 5 NW - 10 -
22.10.2018 09:00:00 17,0 15,0 9 5 NW - 10 -
22.10.2018 08:00:00 17,3 14,5 9 5 W 1014,3 10 -
22.10.2018 07:00:00 17,0 16,0 8 4 NW - 8 -
22.10.2018 06:00:00 17,0 16,0 8 4 NNO - 8 -
22.10.2018 05:00:00 17,7 16,6 8 4 WNW 1014,1 8 0,0
22.10.2018 04:00:00 18,0 17,0 8 4 W - 8 -
22.10.2018 03:00:00 19,0 17,0 11 6 N - 8 -
22.10.2018 02:00:00 18,4 16,8 13 7 N 1015,4 8 -
22.10.2018 01:00:00 19,0 17,0 15 8 NNW - 10 -
22.10.2018 00:00:00 18,0 17,0 9 5 NW - 10 -
21.10.2018 23:00:00 18,1 16,5 13 7 N 1015,9 10 0,0
21.10.2018 22:00:00 18,0 17,0 15 8 NNW - 10 -
21.10.2018 21:00:00 19,0 17,0 13 7 N - 10 -
21.10.2018 20:00:00 20,2 17,0 16 9 NNW 1015,8 10 -
21.10.2018 19:00:00 21,0 17,0 18 10 N - 10 -
21.10.2018 18:00:00 23,0 18,0 22 12 NNW - 10 -
21.10.2018 17:00:00 22,5 17,4 8 4 WZW 1015,8 10 0,0
21.10.2018 16:00:00 23,0 19,0 8 4 ZZW - 10 -
21.10.2018 15:00:00 24,0 19,0 9 5 ZZW - 10 -
21.10.2018 14:00:00 24,4 17,1 9 5 WNW 1017,5 10 -
21.10.2018 13:00:00 23,0 18,0 9 5 NW - 10 -
21.10.2018 12:00:00 - - - - - - - -
21.10.2018 11:00:00 19,5 17,5 9 5 WNW 1019,6 9 0,0
21.10.2018 10:00:00 17,0 17,0 9 5 WNW - 7 -
21.10.2018 09:00:00 16,0 16,0 8 4 NW - 3,0 -
21.10.2018 08:00:00 15,3 15,1 8 4 NNW 1019,5 2,0 -
21.10.2018 07:00:00 16,0 15,0 8 4 N - 0,1 -
21.10.2018 06:00:00 16,0 16,0 5 3 NNW - 0,1 -
21.10.2018 05:00:00 16,4 16,0 5 3 NW 1020,1 10 0,0
21.10.2018 04:00:00 17,0 16,0 4 2 N - 10 -
21.10.2018 03:00:00 17,0 17,0 4 2 NNW - 10 -
21.10.2018 02:00:00 17,6 16,9 2 1 - 1020,8 10 -
21.10.2018 01:00:00 18,0 17,0 5 3 NNW - 10 -
21.10.2018 00:00:00 19,0 18,0 2 1 - - 10 -
20.10.2018 23:00:00 19,3 18,1 4 2 NNO 1021,4 10 0,0
20.10.2018 22:00:00 20,0 18,0 5 3 N - 10 -
20.10.2018 21:00:00 21,0 19,0 5 3 Z - 10 -
20.10.2018 20:00:00 21,1 19,1 4 2 Z 1020,9 10 -
20.10.2018 19:00:00 22,0 19,0 8 4 ZZO - 10 -
20.10.2018 18:00:00 23,0 18,0 9 5 Z - 10 -
20.10.2018 17:00:00 23,7 18,0 11 6 ZZO 1020,2 10 0,0
20.10.2018 16:00:00 25,0 17,0 8 4 Z - 10 -
20.10.2018 15:00:00 23,0 17,0 13 7 ZZW - 10 -
20.10.2018 14:00:00 23,4 16,5 9 5 ZW 1020,7 10 -
20.10.2018 13:00:00 23,0 16,0 8 4 ZW - 10 -
20.10.2018 12:00:00 22,0 17,0 5 3 NW - 10 -
20.10.2018 11:00:00 19,9 17,3 5 3 NW 1021,4 10 0,0
20.10.2018 10:00:00 18,0 16,0 8 4 NW - 10 -
20.10.2018 09:00:00 16,0 15,0 5 3 NNW - 10 -
20.10.2018 08:00:00 15,6 14,9 9 5 N 1019,8 10 -
20.10.2018 07:00:00 16,0 15,0 5 3 NNW - 10 -
20.10.2018 06:00:00 16,0 15,0 8 4 NNW - 10 -
20.10.2018 05:00:00 16,6 15,3 8 4 NNW 1019,0 10 0,0
20.10.2018 04:00:00 17,0 16,0 8 4 N - 10 -
20.10.2018 03:00:00 18,0 17,0 8 4 NW - 10 -
20.10.2018 02:00:00 17,4 16,2 8 4 NW 1018,7 10 -
20.10.2018 01:00:00 18,0 17,0 5 3 N - 10 -
20.10.2018 00:00:00 19,0 18,0 11 6 NW - 10 -
19.10.2018 23:00:00 19,2 17,5 11 6 NW 1018,1 10 0,0
19.10.2018 22:00:00 20,0 17,0 5 3 N - 10 -
19.10.2018 21:00:00 21,0 16,0 5 3 NNO - 10 -
19.10.2018 20:00:00 21,8 16,0 4 2 - 1016,9 10 -
19.10.2018 19:00:00 23,0 19,0 9 5 ZZW - 10 -
19.10.2018 18:00:00 24,0 18,0 11 6 Z - 10 -
19.10.2018 17:00:00 24,1 17,5 15 8 ZZW 1015,0 10 0,0
19.10.2018 16:00:00 24,0 18,0 11 6 ZW - 10 -
19.10.2018 15:00:00 25,0 17,0 11 6 Z - 10 -
19.10.2018 14:00:00 23,7 16,9 11 6 ZZW 1014,4 10 -
19.10.2018 13:00:00 23,0 18,0 9 5 ZW - 10 -
19.10.2018 12:00:00 23,0 18,0 9 5 ZW - 10 -
19.10.2018 11:00:00 22,9 15,8 8 4 ZO 1014,8 10 0,0
19.10.2018 10:00:00 21,0 18,0 4 2 - - 10 -
19.10.2018 09:00:00 19,0 17,0 4 2 - - 10 -
19.10.2018 08:00:00 17,0 16,0 2 1 - 1012,0 10 -
19.10.2018 07:00:00 18,0 16,0 8 4 NW - 10 -
19.10.2018 06:00:00 18,0 17,0 11 6 WNW - 10 -
19.10.2018 05:00:00 17,6 16,6 11 6 NW 1010,6 10 0,0
19.10.2018 04:00:00 18,0 17,0 8 4 NW - 10 -
19.10.2018 03:00:00 - - - - - - - -
19.10.2018 02:00:00 18,0 16,3 9 5 NW 1010,8 10 -
19.10.2018 01:00:00 20,0 17,0 2 1 - - 10 -
19.10.2018 00:00:00 21,0 17,0 9 5 O - 10 -
18.10.2018 23:00:00 21,5 17,0 21 11 O 1010,3 10 0,0
18.10.2018 22:00:00 20,0 15,0 15 8 NO - 10 -
18.10.2018 21:00:00 21,0 15,0 9 5 ONO - 10 -
18.10.2018 20:00:00 21,2 15,1 24 13 O 1008,8 10 -
18.10.2018 19:00:00 22,0 14,0 18 10 O - 10 -
18.10.2018 18:00:00 23,0 14,0 18 10 O - 10 -
18.10.2018 17:00:00 22,8 14,1 28 15 O 1006,6 10 0,0
18.10.2018 16:00:00 23,0 15,0 22 12 OZO - 10 -
18.10.2018 15:00:00 23,0 15,0 11 6 O - 10 -
18.10.2018 14:00:00 22,0 16,0 24 13 OZO - 10 -
18.10.2018 13:00:00 22,0 16,0 24 13 O - 10 -
18.10.2018 12:00:00 21,0 16,0 15 8 O - 10 -
18.10.2018 11:00:00 19,7 15,7 16 9 ONO 1007,9 10 0,0
18.10.2018 10:00:00 18,0 17,0 2 1 - - 10 -
18.10.2018 09:00:00 18,0 17,0 8 4 WZW - 10 -
18.10.2018 08:00:00 17,6 16,5 9 5 Z 1007,7 10 -
18.10.2018 07:00:00 17,0 16,0 24 13 ZO - 4,0 -
18.10.2018 06:00:00 21,0 17,0 13 7 ONO - 10 -
18.10.2018 05:00:00 17,7 16,5 9 5 NW 1007,4 10 0,0
18.10.2018 04:00:00 - - - - - - - -
18.10.2018 03:00:00 17,0 17,0 9 5 NW - 10 -
18.10.2018 02:00:00 18,0 16,0 5 3 - - 10 -
18.10.2018 01:00:00 18,0 17,0 8 4 N - 10 -
18.10.2018 00:00:00 19,0 16,0 15 8 O - 10 -
17.10.2018 23:00:00 19,6 15,6 11 6 ZZW 1011,3 10 0,0

tt = temperatuur
td = dauwpunt
ff = windsnelheid
dd = windrichting
ppp = luchtdruk
vv = zicht
rr = neerslag

Weerstations in de omgeving